CST,Max TemperatureF,Mean TemperatureF,Min TemperatureF,Max Dew PointF,MeanDew PointF,Min DewpointF,Max Humidity, Mean Humidity, Min Humidity, Max Sea Level PressureIn, Mean Sea Level PressureIn, Min Sea Level PressureIn, Max VisibilityMiles, Mean VisibilityMiles, Min VisibilityMiles, Max Wind SpeedMPH, Mean Wind SpeedMPH, Max Gust SpeedMPH,PrecipitationIn, CloudCover, Events, WindDirDegrees
2012-1-1,42,35,28,36,24,16,87,67,52,30.21,29.93,29.51,10,10,9,39,24,50,0.03,6,,294
2012-1-2,24,20,15,14,9,5,74,59,46,30.46,30.32,30.21,10,9,3,29,21,36,0.00,6,,322
2012-1-3,30,18,6,12,8,1,85,65,40,30.48,30.32,30.06,10,10,10,16,6,20,0.00,0,,206
2012-1-4,42,30,19,25,18,10,80,61,42,30.12,30.03,29.95,10,10,10,18,8,21,0.00,0,,274
2012-1-5,53,38,23,30,25,18,86,65,41,30.03,29.91,29.77,10,10,10,17,6,22,0.00,0,,228
2012-1-6,55,42,30,34,29,27,86,66,41,29.87,29.76,29.71,10,10,10,13,6,,0.00,1,,287
2012-1-7,39,31,23,28,24,19,86,75,56,30.24,30.09,29.91,10,10,10,15,10,18,0.00,0,,293
2012-1-8,35,28,21,27,23,16,93,81,70,30.38,30.33,30.28,10,10,10,7,3,,0.00,1,,19
2012-1-9,48,34,19,28,24,16,93,74,46,30.28,30.13,29.98,10,6,0,26,8,32,0.00,0,,235
2012-1-10,53,38,23,30,25,19,86,64,35,30.08,29.97,29.82,10,10,10,12,6,,0.00,0,,208
2012-1-11,53,37,21,30,24,18,86,64,33,29.77,29.66,29.57,10,10,8,13,4,,0.00,0,,163
2012-1-12,28,21,14,21,12,9,86,77,69,29.69,29.62,29.56,10,4,0,25,20,33,0.00,8,,308
2012-1-13,17,14,12,10,9,7,85,75,68,30.06,29.91,29.74,10,9,3,20,16,22,0.00,8,,299
2012-1-14,17,9,1,10,5,-2,92,80,68,30.22,30.13,30.06,10,9,5,7,1,,0.00,3,,103
2012-1-15,35,24,14,27,20,10,93,78,65,30.27,30.16,29.96,10,10,9,25,11,32,0.00,1,,144
2012-1-16,39,34,30,34,29,23,87,79,70,29.91,29.79,29.70,10,10,10,14,8,,0.00,3,,147
2012-1-17,35,22,10,30,20,3,87,78,67,30.28,29.94,29.65,10,7,1,25,15,33,0.01,6,,331
2012-1-18,24,12,0,12,4,-6,92,75,59,30.33,30.19,29.93,10,10,10,18,7,21,0.00,1,,203
2012-1-19,24,12,0,19,-1,-9,80,60,48,30.22,30.06,29.82,10,10,3,23,12,24,0.00,4,,323
2012-1-20,12,6,0,9,-1,-9,85,71,52,30.24,30.14,30.05,10,6,0,20,9,,0.01,7,,67
2012-1-21,17,12,8,10,6,3,86,75,67,30.27,30.21,30.13,10,10,10,16,10,,0.00,6,,66
2012-1-22,37,25,15,36,26,10,100,92,79,30.01,29.72,29.38,10,3,0,23,17,29,0.00,8,,141
2012-1-23,39,34,28,37,27,21,100,83,74,29.93,29.58,29.32,10,6,0,32,16,37,0.02,8,,263
2012-1-24,28,24,21,21,19,18,86,76,69,30.34,30.20,30.00,10,10,9,21,14,22,0.00,4,,285
2012-1-25,33,25,17,28,21,12,93,83,75,30.35,30.27,30.11,10,6,3,15,7,,0.00,3,,108
2012-1-26,35,32,28,30,29,27,93,90,81,30.04,29.86,29.73,4,2,0,13,5,18,0.00,8,,191
2012-1-27,37,28,19,28,23,16,87,80,60,30.00,29.93,29.75,10,10,4,15,8,,0.00,4,,254
2012-1-28,33,26,19,28,18,14,81,70,55,30.14,30.06,29.91,10,10,10,26,19,34,0.00,1,,275
2012-1-29,30,22,15,23,16,10,80,69,59,30.25,30.13,29.97,10,10,10,25,13,33,0.00,3,,282
2012-1-30,55,40,24,37,28,18,80,67,47,30.15,29.91,29.79,10,10,10,20,12,26,0.00,3,,185
2012-1-31,55,46,37,48,40,32,87,77,70,29.93,29.82,29.77,10,10,6,22,13,25,0.00,2,,236